period_start,C,m1,H,J0,J1,J2,J3,J4,J5,JA,JB,JC,JD,JJ,JK,JN,#
2017-06-14 00:03:59,0.00,0.61,0.00,24.27,28.74,31.77,13.87,47.28,1010.76,2024.84,3250.99,2912.99,3341.98,600.05,590.11,22.21,0000 0000 0000 0000 000000
2017-06-14 00:09:00,0.00,0.61,0.00,24.23,28.72,31.76,13.80,47.28,1010.77,2024.91,3250.99,2912.99,3341.98,600.00,590.13,22.26,0000 0000 0000 0000 000000
2017-06-14 00:14:01,0.00,0.61,0.00,24.21,28.72,31.75,13.85,47.21,1010.78,2024.95,3250.99,2912.99,3341.98,599.86,590.08,22.31,0000 0000 0000 0000 000000
2017-06-14 00:19:02,-0.00,0.61,0.00,24.17,28.71,31.74,13.85,47.13,1010.79,2024.96,3250.99,2912.99,3341.99,599.98,590.33,22.36,0000 0000 0000 0000 000000
2017-06-14 00:24:03,0.00,0.61,0.00,24.14,28.70,31.72,13.84,47.13,1010.79,2024.98,3251.00,2913.00,3341.99,600.01,590.33,22.41,0000 0000 0000 0000 000000
2017-06-14 00:29:05,-0.00,0.61,0.00,24.12,28.69,31.71,13.93,47.23,1010.79,2024.99,3251.02,2913.06,3342.00,599.97,590.49,22.46,0000 0000 0000 0000 000000
2017-06-14 00:34:06,0.00,0.61,0.00,24.10,28.67,31.69,13.85,47.14,1010.88,2024.99,3251.02,2913.05,3342.00,599.93,590.35,22.51,0000 0000 0000 0000 000000
2017-06-14 00:39:07,-0.01,0.61,0.00,24.07,28.66,31.69,13.86,47.20,1010.82,2024.99,3251.06,2913.15,3342.03,599.87,590.30,22.56,0000 0000 0000 0000 000000
2017-06-14 00:44:08,-0.02,0.61,0.00,24.04,28.65,31.67,13.90,47.27,1010.78,2024.99,3251.36,2913.50,3342.12,599.96,590.45,22.61,0000 0000 0000 0000 000000
2017-06-14 00:49:09,-0.01,0.61,0.00,24.01,28.63,31.64,13.89,47.17,1010.84,2024.99,3251.57,2913.67,3342.36,599.95,590.59,22.66,0000 0000 0000 0000 000000
2017-06-14 00:54:10,0.00,0.61,0.00,23.97,28.61,31.60,13.88,47.16,1010.96,2024.99,3251.59,2913.80,3342.53,600.10,590.89,22.71,0000 0000 0000 0000 000000
2017-06-14 00:59:12,-0.02,0.61,0.00,23.94,28.60,31.57,13.90,47.24,1011.05,2024.99,3251.82,2913.92,3342.80,600.04,591.00,22.76,0000 0000 0000 0000 000000
2017-06-14 01:04:13,-0.00,0.61,0.00,23.91,28.57,31.58,13.84,47.16,1011.08,2025.02,3251.86,2913.96,3342.94,600.02,590.90,22.81,0000 0000 0000 0000 000000
2017-06-14 01:09:14,0.00,0.61,0.00,23.89,28.55,31.52,13.93,47.08,1011.21,2025.05,3251.95,2913.97,3342.98,600.13,591.21,22.86,0000 0000 0000 0000 000000
2017-06-14 01:14:16,0.01,0.61,0.00,23.86,28.54,31.50,13.81,47.10,1011.23,2025.16,3251.99,2913.99,3342.99,599.86,591.07,22.91,0000 0000 0000 0000 000000
2017-06-14 01:19:17,0.01,0.61,0.00,23.85,28.52,31.47,13.86,47.46,1011.24,2025.27,3251.99,2913.99,3342.99,599.42,590.60,22.96,0000 0000 0000 0000 000000
2017-06-14 01:24:18,0.04,0.61,0.00,23.83,28.50,31.44,13.89,47.35,1011.25,2025.66,3251.99,2913.99,3342.99,600.17,591.43,23.01,0000 0000 0000 0000 000000
2017-06-14 01:29:20,0.01,0.61,0.00,23.81,28.47,31.43,13.87,47.33,1011.26,2025.91,3251.99,2914.01,3343.05,599.54,590.80,23.06,0000 0000 0000 0000 000000
2017-06-14 01:34:21,-0.01,0.61,0.00,23.79,28.45,31.41,13.87,47.32,1011.26,2025.98,3252.01,2914.11,3343.27,600.34,591.65,23.11,0000 0000 0000 0000 000000
2017-06-14 01:39:22,-0.02,0.61,0.00,23.78,28.43,31.39,13.87,47.30,1011.28,2025.99,3252.07,2914.60,3343.85,600.06,591.44,23.16,0000 0000 0000 0000 000000
2017-06-14 01:44:24,-0.01,0.61,0.00,23.76,28.41,31.36,13.92,47.37,1011.33,2025.99,3252.16,2914.89,3343.96,600.23,591.63,23.21,0000 0000 0000 0000 000000
2017-06-14 01:49:25,-0.00,0.61,0.00,23.75,28.39,31.34,13.96,47.48,1011.44,2025.99,3252.36,2914.94,3343.99,600.03,591.66,23.26,0000 0000 0000 0000 000000
2017-06-14 01:54:26,-0.00,0.61,0.00,23.72,28.37,31.33,13.96,47.46,1011.66,2026.01,3252.87,2914.99,3343.99,600.18,591.86,23.31,0000 0000 0000 0000 000000
2017-06-14 01:59:27,0.00,0.61,0.00,23.70,28.35,31.30,13.86,47.35,1011.72,2026.03,3252.98,2914.99,3344.01,600.23,592.07,23.36,0000 0000 0000 0000 000000
2017-06-14 02:04:28,0.00,0.61,0.00,23.69,28.32,31.26,13.83,47.22,1011.73,2026.17,3252.99,2915.00,3344.10,599.82,591.59,23.41,0000 0000 0000 0000 000000
2017-06-14 02:09:30,0.03,0.61,0.00,23.67,28.30,31.25,13.86,47.27,1011.73,2026.48,3252.99,2915.01,3344.41,599.74,591.56,23.46,0000 0000 0000 0000 000000
2017-06-14 02:14:31,0.01,0.61,0.00,23.67,28.28,31.24,13.97,47.37,1011.73,2026.72,3252.99,2915.09,3344.78,600.13,592.01,23.51,0000 0000 0000 0000 000000
2017-06-14 02:19:32,-0.00,0.61,0.00,23.66,28.26,31.24,13.89,47.27,1011.73,2026.91,3253.02,2915.42,3344.97,600.03,591.74,23.56,0000 0000 0000 0000 000000
2017-06-14 02:24:33,-0.01,0.61,0.00,23.65,28.25,31.19,13.94,47.24,1011.74,2026.96,3253.06,2915.83,3344.99,600.27,592.08,23.61,0000 0000 0000 0000 000000
2017-06-14 02:29:34,-0.00,0.61,0.00,23.62,28.22,31.17,13.86,47.32,1011.73,2026.98,3253.34,2915.98,3344.99,599.95,591.92,23.66,0000 0000 0000 0000 000000
2017-06-14 02:34:36,-0.00,0.61,0.00,23.61,28.21,31.16,13.96,47.40,1011.73,2026.99,3253.69,2915.99,3345.00,599.90,591.85,23.71,0000 0000 0000 0000 000000
2017-06-14 02:39:37,-0.00,0.61,0.00,23.59,28.19,31.15,13.89,47.47,1011.74,2026.99,3253.88,2915.99,3345.03,599.84,591.83,23.76,0000 0000 0000 0000 000000
2017-06-14 02:44:38,-0.00,0.61,0.00,23.57,28.17,31.13,13.89,47.43,1011.74,2026.99,3253.97,2915.99,3345.12,599.77,591.64,23.81,0000 0000 0000 0000 000000
2017-06-14 02:49:39,-0.00,0.61,0.00,23.56,28.15,31.12,13.98,47.33,1011.74,2026.99,3253.99,2916.00,3345.38,600.40,592.45,23.86,0000 0000 0000 0000 000000
2017-06-14 02:54:40,-0.00,0.61,0.00,23.55,28.13,31.08,13.89,47.40,1011.73,2027.01,3253.99,2916.05,3345.93,600.14,592.13,23.91,0000 0000 0000 0000 000000
2017-06-14 02:59:41,0.00,0.61,0.00,23.52,28.12,31.07,13.95,47.58,1011.65,2027.03,3254.00,2916.16,3345.98,600.10,592.23,23.96,0000 0000 0000 0000 000000
2017-06-14 03:04:43,0.00,0.61,0.00,23.51,28.10,31.06,13.82,47.54,1011.67,2027.13,3254.02,2916.59,3345.99,599.82,592.05,24.01,0000 0000 0000 0000 000000
2017-06-14 03:09:44,0.03,0.61,0.00,23.50,28.08,31.04,13.90,47.52,1011.73,2027.43,3254.12,2916.91,3346.00,599.79,591.97,24.06,0000 0000 0000 0000 000000
2017-06-14 03:14:45,0.01,0.61,0.00,23.47,28.06,31.03,13.96,47.49,1011.73,2027.85,3254.65,2916.98,3346.06,600.33,592.54,24.11,0000 0000 0000 0000 000000
2017-06-14 03:19:46,-0.00,0.61,0.00,23.47,28.04,31.00,13.94,47.55,1011.73,2027.97,3254.92,2916.99,3346.24,599.91,592.15,24.16,0000 0000 0000 0000 000000
2017-06-14 03:24:48,-0.01,0.61,0.00,23.44,28.02,30.98,13.91,47.70,1011.68,2027.98,3254.95,2916.99,3346.70,600.28,592.58,24.21,0000 0000 0000 0000 000000
2017-06-14 03:29:49,0.00,0.61,0.00,23.42,28.00,30.97,13.93,47.45,1011.73,2027.98,3254.95,2916.99,3346.76,600.34,592.67,24.26,0000 0000 0000 0000 000000
2017-06-14 03:34:50,-0.00,0.61,0.00,23.40,27.98,30.94,13.93,47.53,1011.70,2027.99,3254.97,2917.00,3346.88,600.30,592.61,24.31,0000 0000 0000 0000 000000
2017-06-14 03:39:52,0.00,0.61,0.00,23.39,27.96,30.94,13.90,47.67,1011.73,2027.99,3254.99,2917.05,3346.97,600.09,592.48,24.36,0000 0000 0000 0000 000000
2017-06-14 03:44:53,0.00,0.61,0.00,23.37,27.95,30.91,13.93,47.64,1011.75,2027.99,3254.99,2917.06,3346.98,600.02,592.50,24.41,0000 0000 0000 0000 000000
2017-06-14 03:49:54,-0.01,0.61,0.00,23.35,27.92,30.89,13.88,47.58,1011.75,2028.00,3254.99,2917.47,3346.99,599.99,592.56,24.46,0000 0000 0000 0000 000000
2017-06-14 03:54:55,0.00,0.61,0.00,23.34,27.91,30.86,13.93,47.37,1011.77,2028.00,3255.00,2917.62,3346.99,599.84,592.34,24.51,0000 0000 0000 0000 000000
2017-06-14 03:59:56,-0.00,0.61,0.00,23.31,27.89,30.86,13.93,47.56,1011.81,2028.03,3255.00,2917.80,3347.02,600.12,592.76,24.56,0000 0000 0000 0000 000000
2017-06-14 04:04:57,0.00,0.61,0.00,23.29,27.87,30.85,13.92,47.60,1012.03,2028.11,3255.05,2917.96,3347.14,599.68,592.46,24.61,0000 0000 0000 0000 000000
2017-06-14 04:09:58,0.03,0.61,0.00,23.27,27.85,30.82,14.01,47.59,1012.18,2028.55,3255.18,2917.99,3347.59,600.31,593.11,24.66,0000 0000 0000 0000 000000
2017-06-14 04:14:59,0.01,0.61,0.00,23.25,27.83,30.82,13.90,47.63,1012.18,2028.83,3255.43,2917.99,3347.88,600.28,593.21,24.71,0000 0000 0000 0000 000000
2017-06-14 04:20:00,-0.00,0.61,0.00,23.22,27.81,30.79,13.93,47.52,1012.21,2028.95,3255.77,2917.99,3347.98,600.19,593.14,24.76,0000 0000 0000 0000 000000
2017-06-14 04:25:02,0.00,0.61,0.00,23.20,27.79,30.76,13.92,47.47,1012.22,2028.98,3255.87,2918.00,3347.98,599.72,592.64,24.81,0000 0000 0000 0000 000000
2017-06-14 04:30:03,0.00,0.61,0.00,23.18,27.77,30.76,13.92,47.42,1012.22,2028.98,3255.97,2918.05,3347.99,600.13,593.22,24.86,0000 0000 0000 0000 000000
2017-06-14 04:35:04,-0.00,0.61,0.00,23.16,27.75,30.73,13.98,47.45,1012.24,2028.99,3255.98,2918.16,3348.00,600.04,593.18,24.91,0000 0000 0000 0000 000000
2017-06-14 04:40:06,-0.00,0.61,0.00,23.13,27.73,30.70,13.92,47.41,1012.21,2028.99,3255.99,2918.31,3348.00,600.34,593.61,24.96,0000 0000 0000 0000 000000
2017-06-14 04:45:07,-0.00,0.61,0.00,23.12,27.71,30.68,13.95,47.58,1012.18,2028.99,3255.99,2918.24,3348.00,599.96,593.21,25.01,0000 0000 0000 0000 000000
2017-06-14 04:50:09,0.00,0.61,0.00,23.10,27.70,30.68,13.95,47.58,1012.12,2028.99,3255.99,2918.18,3348.00,599.82,593.08,25.06,0000 0000 0000 0000 000000
2017-06-14 04:55:10,0.00,0.61,0.00,23.07,27.67,30.65,13.96,47.54,1012.15,2029.00,3255.98,2918.20,3348.00,600.26,593.49,25.12,0000 0000 0000 0000 000000
2017-06-14 05:00:12,0.00,0.61,0.00,23.06,27.65,30.62,13.88,47.67,1012.04,2029.03,3255.98,2918.23,3348.00,599.46,592.72,25.17,0000 0000 0000 0000 000000
2017-06-14 05:05:13,0.01,0.61,0.00,23.03,27.63,30.60,14.01,47.67,1012.19,2029.13,3255.96,2918.08,3347.99,600.31,593.66,25.22,0000 0000 0000 0000 000000
2017-06-14 05:10:14,0.05,0.62,0.00,23.00,27.61,30.59,13.85,47.63,1012.20,2029.55,3255.74,2918.04,3347.95,599.78,593.20,25.27,0000 0000 0000 0000 000000
2017-06-14 05:15:16,0.03,0.62,0.00,22.96,27.59,30.56,13.94,47.44,1012.26,2029.87,3255.28,2918.00,3347.82,600.42,593.99,25.32,0000 0000 0000 0000 000000
2017-06-14 05:20:17,-0.00,0.62,0.00,22.93,27.57,30.54,13.92,47.54,1012.24,2029.95,3255.30,2918.00,3347.90,599.70,593.36,25.37,0000 0000 0000 0000 000000
2017-06-14 05:25:18,-0.00,0.62,0.00,22.92,27.55,30.52,14.01,47.51,1012.24,2029.98,3255.59,2918.02,3347.97,600.41,594.10,25.42,0000 0000 0000 0000 000000
2017-06-14 05:30:19,-0.00,0.62,0.00,22.90,27.52,30.50,13.91,47.59,1012.22,2029.98,3255.83,2918.06,3347.99,599.87,593.50,25.47,0000 0000 0000 0000 000000
2017-06-14 05:35:21,-0.00,0.62,0.00,22.86,27.50,30.49,13.97,47.70,1012.19,2029.99,3255.91,2918.22,3347.99,599.67,593.28,25.52,0000 0000 0000 0000 000000
2017-06-14 05:40:22,-0.01,0.62,0.00,22.84,27.48,30.44,13.95,47.55,1012.22,2029.99,3255.91,2918.54,3347.99,600.12,593.99,25.57,0000 0000 0000 0000 000000
2017-06-14 05:45:23,-0.01,0.62,0.00,22.81,27.46,30.42,13.96,47.60,1012.23,2030.00,3255.98,2918.96,3348.02,600.11,593.95,25.62,0000 0000 0000 0000 000000
2017-06-14 05:50:25,-0.00,0.62,0.00,22.78,27.43,30.39,13.97,47.57,1012.46,2030.03,3255.99,2918.98,3348.09,600.10,594.05,25.67,0000 0000 0000 0000 000000
2017-06-14 05:55:26,0.00,0.62,0.00,22.76,27.41,30.38,13.98,47.55,1012.65,2030.13,3255.99,2918.99,3348.48,600.07,594.26,25.72,0000 0000 0000 0000 000000
2017-06-14 06:00:27,0.03,0.62,0.00,22.73,27.39,30.36,14.00,47.57,1012.65,2030.44,3255.99,2918.99,3348.84,600.35,594.61,25.77,0000 0000 0000 0000 000000
2017-06-14 06:05:29,0.03,0.62,0.00,22.71,27.36,30.33,13.92,47.52,1012.69,2030.91,3255.99,2919.00,3348.97,599.67,594.00,25.82,0000 0000 0000 0000 000000
2017-06-14 06:10:30,0.00,0.62,0.00,22.68,27.34,30.29,13.96,47.45,1012.69,2030.99,3255.99,2919.03,3348.99,599.75,594.15,25.87,0000 0000 0000 0000 000000
2017-06-14 06:15:31,0.00,0.62,0.00,22.64,27.31,30.26,14.05,47.63,1012.65,2030.99,3256.00,2919.09,3348.99,600.32,594.85,25.92,0000 0000 0000 0000 000000
2017-06-14 06:20:33,-0.00,0.62,0.00,22.62,27.29,30.26,13.98,47.58,1012.63,2030.99,3256.00,2919.19,3349.00,600.14,594.62,25.97,0000 0000 0000 0000 000000
2017-06-14 06:25:34,-0.01,0.62,0.00,22.60,27.26,30.22,13.89,47.47,1012.70,2031.00,3256.01,2919.65,3349.01,599.70,594.33,26.02,0000 0000 0000 0000 000000
2017-06-14 06:30:35,-0.00,0.62,0.00,22.57,27.23,30.21,13.94,47.58,1012.71,2031.03,3256.02,2919.93,3349.09,600.08,594.63,26.07,0000 0000 0000 0000 000000
2017-06-14 06:35:36,0.01,0.62,0.00,22.54,27.21,30.18,13.99,47.47,1012.73,2031.11,3256.03,2919.96,3349.22,600.14,594.81,26.12,0000 0000 0000 0000 000000
2017-06-14 06:40:38,0.03,0.62,0.00,22.52,27.18,30.15,13.91,47.42,1012.78,2031.50,3256.07,2919.99,3349.64,599.86,594.62,26.17,0000 0000 0000 0000 000000
2017-06-14 06:45:39,0.03,0.62,0.00,22.49,27.16,30.13,14.01,47.48,1012.89,2031.93,3256.27,2919.99,3349.96,600.45,595.32,26.22,0000 0000 0000 0000 000000
2017-06-14 06:50:40,-0.01,0.62,0.00,22.46,27.13,30.09,13.99,47.53,1012.84,2031.98,3256.65,2920.01,3349.99,600.01,594.86,26.27,0000 0000 0000 0000 000000
2017-06-14 06:55:41,0.00,0.62,0.00,22.45,27.11,30.06,14.01,47.51,1013.02,2031.99,3256.71,2920.01,3349.99,600.19,595.28,26.32,0000 0000 0000 0000 000000
2017-06-14 07:00:43,0.00,0.62,0.00,22.43,27.08,30.02,13.98,47.40,1013.03,2031.99,3256.70,2920.03,3349.99,599.97,594.93,26.37,0000 0000 0000 0000 000000
2017-06-14 07:05:44,-0.01,0.62,0.00,22.41,27.06,30.04,13.94,47.47,1013.12,2031.99,3256.87,2920.23,3350.01,600.02,595.24,26.42,0000 0000 0000 0000 000000
2017-06-14 07:10:45,0.00,0.62,0.00,22.38,27.03,30.00,13.95,47.42,1013.16,2032.00,3256.96,2920.54,3350.02,599.59,594.91,26.47,0000 0000 0000 0000 000000
2017-06-14 07:15:47,-0.01,0.62,0.00,22.36,27.01,30.00,14.00,47.54,1013.03,2032.00,3256.94,2920.70,3350.07,599.83,595.11,26.52,0000 0000 0000 0000 000000
2017-06-14 07:20:48,0.00,0.62,0.00,22.36,26.99,29.96,13.99,47.47,1013.10,2032.02,3256.88,2920.86,3350.09,599.96,595.20,26.57,0000 0000 0000 0000 000000
2017-06-14 07:25:49,0.00,0.62,0.00,22.34,26.96,29.93,13.95,47.54,1013.13,2032.08,3256.86,2920.96,3350.21,599.79,595.02,26.62,0000 0000 0000 0000 000000
2017-06-14 07:30:50,0.02,0.62,0.00,22.30,26.95,29.93,13.99,47.51,1013.06,2032.25,3256.82,2920.97,3350.49,600.22,595.62,26.67,0000 0000 0000 0000 000000
2017-06-14 07:35:52,0.03,0.62,0.00,22.29,26.92,29.89,14.01,47.58,1013.12,2032.67,3256.82,2920.97,3350.78,600.09,595.51,26.72,0000 0000 0000 0000 000000
2017-06-14 07:40:53,0.01,0.62,0.00,22.29,26.90,29.89,13.99,47.51,1013.18,2032.92,3256.90,2920.98,3350.93,600.08,595.48,26.77,0000 0000 0000 0000 000000
2017-06-14 07:45:54,0.00,0.62,0.00,22.28,26.88,29.86,14.01,47.44,1013.20,2032.96,3256.86,2920.99,3350.96,600.19,595.70,26.82,0000 0000 0000 0000 000000
2017-06-14 07:50:56,0.00,0.62,0.00,22.27,26.86,29.87,14.01,47.42,1013.20,2032.99,3256.96,2920.99,3350.99,600.11,595.58,26.87,0000 0000 0000 0000 000000
2017-06-14 07:55:57,0.00,0.62,0.00,22.24,26.84,29.84,13.97,47.58,1013.20,2032.99,3256.94,2921.00,3350.99,599.90,595.43,26.92,0000 0000 0000 0000 000000
2017-06-14 08:00:58,0.00,0.63,0.00,22.22,26.82,29.82,14.02,47.42,1013.20,2033.00,3256.97,2921.00,3350.99,600.14,595.74,26.97,0000 0000 0000 0000 000000
2017-06-14 08:05:59,0.00,0.63,0.00,22.20,26.80,29.82,13.93,47.44,1013.20,2033.01,3256.97,2921.03,3351.01,599.80,595.51,27.02,0000 0000 0000 0000 000000
2017-06-14 08:11:00,0.00,0.63,0.00,22.19,26.78,29.76,13.98,47.38,1013.43,2033.04,3256.97,2921.08,3351.01,599.90,595.67,27.07,0000 0000 0000 0000 000000
2017-06-14 08:16:02,-0.00,0.63,0.00,22.19,26.76,29.75,13.99,47.50,1013.62,2033.05,3256.97,2921.13,3351.01,600.34,596.16,27.12,0000 0000 0000 0000 000000
2017-06-14 08:21:03,0.01,0.63,0.00,22.18,26.75,29.73,13.96,47.32,1013.69,2033.19,3256.96,2921.33,3351.04,600.15,596.07,27.17,0000 0000 0000 0000 000000
2017-06-14 08:26:04,0.02,0.63,0.00,22.17,26.73,29.72,14.01,47.40,1013.69,2033.49,3256.93,2921.48,3351.08,599.83,595.79,27.22,0000 0000 0000 0000 000000
2017-06-14 08:31:06,0.02,0.63,0.00,22.17,26.71,29.72,13.98,47.35,1013.69,2033.87,3256.86,2921.53,3351.08,599.92,595.88,27.27,0000 0000 0000 0000 000000
2017-06-14 08:36:07,-0.00,0.63,0.00,22.17,26.70,29.70,14.05,47.40,1013.69,2033.95,3256.79,2921.72,3351.19,600.47,596.44,27.32,0000 0000 0000 0000 000000
2017-06-14 08:41:08,0.02,0.63,0.00,22.16,26.68,29.68,14.02,47.46,1013.69,2033.95,3256.42,2921.67,3351.12,599.95,595.98,27.37,0000 0000 0000 0000 000000
2017-06-14 08:46:09,-0.01,0.63,0.00,22.14,26.67,29.67,13.90,47.42,1013.69,2033.98,3256.41,2921.84,3351.26,600.04,596.05,27.42,0000 0000 0000 0000 000000
2017-06-14 08:51:11,0.02,0.63,0.00,22.14,26.65,29.63,14.06,47.61,1013.69,2033.99,3256.12,2921.73,3351.17,599.98,596.04,27.47,0000 0000 0000 0000 000000
2017-06-14 08:56:12,-0.01,0.63,0.00,22.15,26.64,29.58,13.98,47.53,1013.69,2033.99,3256.07,2921.82,3351.29,599.97,595.97,27.52,0000 0000 0000 0000 000000
2017-06-14 09:01:13,0.01,0.63,0.00,22.17,26.62,29.59,14.04,47.38,1013.70,2033.99,3256.02,2921.74,3351.12,600.14,596.11,27.57,0000 0000 0000 0000 000000
2017-06-14 09:06:15,-0.01,0.63,0.00,22.17,26.62,29.62,14.03,47.42,1013.69,2033.99,3256.02,2921.82,3351.20,600.08,596.17,27.62,0000 0000 0000 0000 000000
2017-06-14 09:11:16,0.01,0.63,0.00,22.19,26.60,29.63,13.99,47.38,1013.69,2033.99,3256.00,2921.72,3351.16,599.78,595.74,27.67,0000 0000 0000 0000 000000
2017-06-14 09:16:17,-0.01,0.63,0.00,22.18,26.60,29.59,13.97,47.42,1013.67,2034.00,3256.02,2921.91,3351.36,600.16,596.07,27.72,0000 0000 0000 0000 000000
2017-06-14 09:21:18,0.01,0.63,0.00,22.18,26.58,29.53,13.97,47.42,1013.66,2034.00,3256.00,2921.86,3351.20,599.98,595.88,27.77,0000 0000 0000 0000 000000
2017-06-14 09:26:20,-0.00,0.63,0.00,22.18,26.57,29.54,13.93,47.48,1013.67,2034.01,3256.00,2921.88,3351.17,599.91,595.79,27.82,0000 0000 0000 0000 000000
2017-06-14 09:31:21,0.01,0.63,0.00,22.19,26.57,29.53,14.00,47.42,1013.68,2034.03,3255.99,2921.72,3351.11,600.29,596.29,27.87,0000 0000 0000 0000 000000
2017-06-14 09:36:22,-0.00,0.63,0.00,22.19,26.57,29.52,13.95,47.38,1013.69,2034.02,3255.99,2921.75,3351.16,599.92,595.87,27.92,0000 0000 0000 0000 000000
2017-06-14 09:41:23,0.00,0.63,0.00,22.20,26.56,29.51,13.96,47.38,1013.69,2034.05,3255.99,2921.81,3351.17,600.00,595.95,27.97,0000 0000 0000 0000 000000
2017-06-14 09:46:24,0.01,0.63,0.00,22.21,26.55,29.50,13.93,47.43,1013.70,2034.10,3255.98,2921.65,3351.08,600.02,595.92,28.02,0000 0000 0000 0000 000000
2017-06-14 09:51:26,0.00,0.63,0.00,22.22,26.55,29.49,13.93,47.37,1013.71,2034.08,3255.98,2921.41,3351.03,599.77,595.66,28.07,0000 0000 0000 0000 000000
2017-06-14 09:56:27,0.01,0.63,0.00,22.22,26.55,29.51,13.94,47.47,1013.70,2034.27,3255.97,2921.68,3351.09,599.70,595.64,28.12,0000 0000 0000 0000 000000
2017-06-14 10:01:28,0.04,0.63,0.00,22.22,26.54,29.48,14.02,47.42,1013.73,2034.53,3255.87,2921.61,3351.05,600.16,596.08,28.17,0000 0000 0000 0000 000000
2017-06-14 10:06:29,0.02,0.63,0.00,22.22,26.53,29.48,13.96,47.53,1013.75,2034.54,3255.13,2921.08,3351.00,600.04,596.04,28.22,0000 0000 0000 0000 000000
2017-06-14 10:11:30,0.02,0.63,0.00,22.22,26.52,29.48,13.98,47.43,1013.71,2034.78,3255.04,2921.04,3351.00,600.02,595.98,28.27,0000 0000 0000 0000 000000
2017-06-14 10:16:31,0.01,0.64,0.00,22.23,26.52,29.46,13.94,47.42,1013.70,2034.83,3255.01,2921.03,3351.00,599.78,595.71,28.32,0000 0000 0000 0000 000000
2017-06-14 10:21:33,-0.02,0.64,0.00,22.25,26.52,29.45,14.01,47.42,1013.70,2034.72,3255.00,2921.01,3351.00,599.96,595.85,28.37,0000 0000 0000 0000 000000
2017-06-14 10:26:34,-0.01,0.63,0.00,22.27,26.52,29.45,13.94,47.33,1013.72,2034.53,3254.99,2921.00,3350.97,599.90,595.69,28.42,0000 0000 0000 0000 000000
2017-06-14 10:31:35,0.02,0.63,0.00,22.28,26.52,29.47,13.92,47.43,1013.85,2034.72,3254.93,2921.00,3350.98,599.44,595.39,28.47,0000 0000 0000 0000 000000
2017-06-14 10:36:37,-0.01,0.63,0.00,22.30,26.52,29.44,13.96,47.34,1013.99,2034.65,3254.75,2921.00,3350.88,599.92,595.86,28.52,0000 0000 0000 0000 000000
2017-06-14 10:41:38,-0.00,0.63,0.00,22.33,26.52,29.39,13.96,47.41,1014.02,2034.40,3254.14,2920.98,3350.39,599.94,595.89,28.57,0000 0000 0000 0000 000000
2017-06-14 10:46:39,0.01,0.63,0.00,22.34,26.52,29.33,13.99,47.43,1013.89,2034.28,3254.01,2920.90,3350.05,600.05,595.87,28.62,0000 0000 0000 0000 000000
2017-06-14 10:51:41,0.01,0.63,0.00,22.35,26.52,29.37,13.97,47.32,1014.13,2034.29,3253.98,2920.56,3350.00,599.83,595.69,28.67,0000 0000 0000 0000 000000
2017-06-14 10:56:42,0.01,0.64,0.00,22.34,26.53,29.41,13.95,47.34,1014.17,2034.41,3253.98,2920.42,3350.00,599.85,595.71,28.73,0000 0000 0000 0000 000000
2017-06-14 11:01:43,0.03,0.64,0.00,22.35,26.54,29.40,13.95,47.45,1014.16,2034.67,3253.96,2920.33,3350.00,599.89,595.78,28.78,0000 0000 0000 0000 000000
2017-06-14 11:06:45,-0.02,0.64,0.00,22.34,26.55,29.39,13.90,47.29,1014.17,2034.33,3253.53,2920.04,3349.99,600.07,595.85,28.83,0000 0000 0000 0000 000000
2017-06-14 11:11:46,0.02,0.64,0.00,22.34,26.55,29.46,14.02,47.44,1014.14,2034.46,3253.30,2920.01,3349.99,600.05,595.95,28.88,0000 0000 0000 0000 000000
2017-06-14 11:16:48,-0.02,0.64,0.00,22.34,26.55,29.45,13.98,47.37,1014.16,2034.25,3253.04,2920.00,3349.92,600.29,596.13,28.93,0000 0000 0000 0000 000000
2017-06-14 11:21:48,0.01,0.64,0.00,22.35,26.55,29.50,13.96,47.36,1014.15,2034.29,3253.00,2920.00,3349.85,599.83,595.75,28.98,0000 0000 0000 0000 000000
2017-06-14 11:26:49,0.00,0.64,0.00,22.34,26.55,29.52,13.94,47.26,1014.11,2034.26,3253.00,2920.00,3349.64,599.92,595.95,29.03,0000 0000 0000 0000 000000
2017-06-14 11:31:50,-0.00,0.64,0.00,22.32,26.55,29.52,13.99,47.45,1014.06,2034.14,3252.99,2920.00,3349.22,599.99,595.94,29.08,0000 0000 0000 0000 000000
2017-06-14 11:36:52,0.00,0.64,0.00,22.32,26.55,29.53,14.01,47.38,1014.07,2034.10,3252.97,2919.99,3349.06,600.13,596.16,29.13,0000 0000 0000 0000 000000
2017-06-14 11:41:53,0.01,0.64,0.00,22.31,26.55,29.53,13.97,47.34,1014.07,2034.15,3252.87,2919.99,3349.02,599.96,595.93,29.18,0000 0000 0000 0000 000000
2017-06-14 11:46:54,0.00,0.64,0.00,22.29,26.55,29.55,13.95,47.67,1013.97,2034.11,3252.41,2919.96,3349.01,599.82,595.67,29.23,0000 0000 0000 0000 000000
2017-06-14 11:51:55,0.00,0.64,0.00,22.28,26.55,29.55,13.90,47.53,1013.95,2034.07,3252.05,2919.91,3349.00,599.88,595.86,29.28,0000 0000 0000 0000 000000
2017-06-14 11:56:56,0.01,0.64,0.00,22.28,26.55,29.52,13.98,47.48,1013.76,2034.18,3252.03,2919.90,3349.00,600.25,596.05,29.33,0000 0000 0000 0000 000000
2017-06-14 12:01:58,0.01,0.64,0.00,22.27,26.55,29.52,13.93,47.41,1013.74,2034.27,3252.02,2919.88,3349.00,599.86,595.64,29.38,0000 0000 0000 0000 000000
2017-06-14 12:06:59,0.00,0.64,0.00,22.27,26.55,29.51,13.97,47.42,1013.71,2034.27,3252.00,2919.76,3349.00,600.14,595.87,29.43,0000 0000 0000 0000 000000
2017-06-14 12:12:00,0.02,0.64,0.00,22.27,26.55,29.53,14.02,47.44,1013.71,2034.53,3252.00,2919.83,3349.00,600.13,595.87,29.48,0000 0000 0000 0000 000000
2017-06-14 12:17:01,0.01,0.64,0.00,22.25,26.55,29.53,13.92,47.49,1013.71,2034.73,3252.00,2919.90,3349.00,600.00,595.79,29.53,0000 0000 0000 0000 000000
2017-06-14 12:22:03,0.01,0.64,0.00,22.25,26.55,29.52,14.03,47.48,1013.70,2034.76,3252.00,2919.81,3349.00,600.44,596.20,29.58,0000 0000 0000 0000 000000
2017-06-14 12:27:04,0.00,0.64,0.00,22.24,26.55,29.53,13.85,47.38,1013.70,2034.77,3251.99,2919.66,3348.99,599.72,595.72,29.63,0000 0000 0000 0000 000000
2017-06-14 12:32:05,0.01,0.64,0.00,22.22,26.55,29.51,13.93,47.34,1013.70,2034.73,3251.97,2919.35,3348.97,600.03,596.22,29.68,0000 0000 0000 0000 000000
2017-06-14 12:37:06,-0.01,0.64,0.00,22.20,26.55,29.50,14.05,47.52,1013.75,2034.59,3251.69,2919.08,3348.92,600.15,596.12,29.73,0000 0000 0000 0000 000000
2017-06-14 12:42:07,0.03,0.64,0.00,22.20,26.54,29.49,13.97,47.48,1013.72,2034.79,3251.43,2919.04,3348.93,599.84,595.86,29.78,0000 0000 0000 0000 000000
2017-06-14 12:47:08,0.00,0.64,0.00,22.21,26.53,29.49,14.02,47.45,1013.72,2034.84,3251.17,2919.04,3348.86,600.21,596.08,29.83,0000 0000 0000 0000 000000
2017-06-14 12:52:10,0.01,0.64,0.00,22.22,26.52,29.49,13.90,47.42,1013.72,2034.84,3251.06,2919.02,3348.61,599.89,595.77,29.88,0000 0000 0000 0000 000000
2017-06-14 12:57:11,0.00,0.64,0.00,22.22,26.52,29.50,13.96,47.48,1013.71,2034.82,3251.00,2919.00,3348.15,599.91,595.84,29.93,0000 0000 0000 0000 000000